Wind_Speed
25 26 28 29 29 29 29 29 30 29 29 29 28 29 29 28 27 27 27 27 26 26 27 27 27 27 26 26 27 26 26 26 26 25 24 24 24 25 25 25 25 25 25 24
25 26 28 29 29 30 29 29 29 30 30 28 28 28 28 27 28 27 26 27 27 27 27 28 28 28 27 28 28 27 27 27 27 27 26 25 25 25 26 26 26 25 25 25
25 27 28 28 28 30 30 29 29 28 28 28 28 28 27 28 28 29 29 28 28 28 28 29 29 29 29 27 26 27 27 28 28 27 27 26 26 26 26 27 27 26 26 25
25 25 28 28 28 29 30 30 30 30 29 29 30 30 29 29 29 30 29 29 29 29 29 29 29 29 28 27 27 27 27 27 28 29 28 27 27 27 27 27 26 26 26 25
24 25 25 27 28 29 29 30 31 31 31 29 29 29 30 29 29 29 29 30 29 30 29 29 29 28 27 27 26 26 26 27 28 29 29 28 28 27 27 27 27 26 26 25
24 24 25 25 27 29 30 30 30 31 31 30 29 28 29 28 28 28 29 29 29 29 28 28 27 27 26 25 25 25 26 26 27 28 29 29 28 27 27 26 26 26 26 25
22 24 25 24 25 27 29 30 29 31 31 31 31 29 29 29 28 28 28 29 30 28 28 28 27 27 26 25 25 26 26 26 27 27 28 28 28 27 27 26 26 26 26 25
22 24 23 23 25 27 27 28 29 30 32 32 32 32 31 30 29 29 29 29 29 28 28 28 27 27 26 26 26 27 27 27 27 27 27 27 27 27 27 26 27 27 26 26
23 23 22 24 25 27 28 28 29 30 31 33 34 34 32 30 28 29 29 29 28 28 28 28 27 27 27 26 27 27 27 27 27 26 26 26 26 26 26 26 27 26 26 26
23 23 23 24 25 27 28 28 29 29 31 31 32 31 31 30 29 28 28 27 27 27 27 28 27 27 27 27 27 27 27 26 26 26 26 25 25 25 25 25 26 25 25 25
21 22 23 24 25 26 27 27 28 29 29 28 29 29 29 29 29 28 27 26 26 27 27 27 26 26 27 27 27 26 27 26 26 26 25 25 25 25 25 24 24 24 24 24
21 22 24 23 23 24 25 25 25 26 27 27 28 28 27 28 28 28 28 27 27 27 28 28 28 28 27 26 26 26 26 26 26 26 25 25 25 24 24 24 24 24 23 23
20 21 21 21 21 22 23 23 23 24 26 26 26 27 27 26 26 26 27 29 29 28 28 28 29 29 28 26 26 25 25 24 24 25 25 24 24 24 24 25 24 24 24 23
19 19 19 19 19 20 20 21 22 23 24 25 26 26 26 26 26 26 28 29 30 30 29 29 29 28 27 26 25 25 25 24 24 24 24 24 24 24 24 25 25 25 24 24
17 17 17 18 18 18 19 19 21 22 23 25 26 27 26 26 26 26 27 29 29 29 28 27 26 26 26 27 27 27 26 26 25 24 24 24 24 24 24 25 25 25 25 24
15 16 17 17 18 20 21 20 21 21 22 23 24 25 25 24 25 25 26 26 27 27 27 27 27 26 27 27 27 26 26 25 25 24 24 23 23 24 25 25 25 25 25 25
16 16 17 18 18 19 21 21 21 21 22 23 23 23 22 22 23 24 25 25 25 26 26 26 26 26 26 26 26 26 25 25 25 25 25 24 24 25 26 26 25 25 25 25
16 17 18 19 18 18 19 20 20 20 21 21 20 20 21 21 22 22 22 22 23 24 25 25 25 25 25 25 25 25 25 25 26 26 26 26 26 26 26 27 26 26 26 25
18 19 20 21 21 20 19 19 19 19 19 19 19 19 19 19 20 20 20 20 21 22 23 24 25 25 25 25 25 25 25 26 26 26 27 27 27 27 27 26 25 25 25 25
16 18 20 20 20 20 19 18 18 17 17 18 18 18 19 19 18 18 19 19 20 21 22 22 22 23 23 23 23 23 24 25 26 26 26 27 26 26 25 24 24 24 24 24
16 17 17 18 18 18 18 17 18 18 17 17 18 18 18 18 19 18 18 18 19 20 21 21 21 21 21 21 21 22 22 22 23 23 23 24 24 24 24 24 23 23 24 25
16 17 17 16 16 16 16 16 17 17 17 17 16 16 16 17 17 17 18 18 18 19 19 19 19 19 20 20 20 20 21 21 21 22 22 23 23 23 23 23 23 23 24 24
15 16 16 16 16 15 15 15 15 16 16 16 16 15 14 15 15 16 16 16 17 17 17 17 18 18 18 19 19 20 20 20 21 21 21 22 22 21 21 21 21 22 23 24
15 15 16 16 15 15 14 14 14 14 14 14 14 14 14 14 14 15 15 15 15 16 17 17 18 18 19 19 19 19 19 20 20 20 20 20 20 19 20 21 21 21 23 24
16 16 16 16 15 14 13 12 12 12 12 12 12 13 13 14 14 14 14 14 14 15 15 16 17 17 17 18 18 18 19 19 20 20 20 20 19 19 19 20 21 22 23 24
15 15 15 15 14 13 12 11 11 11 10 10 11 12 13 13 14 14 14 14 14 15 15 16 16 17 17 18 18 19 19 20 20 19 19 19 19 19 19 20 21 22 22 23
13 13 13 13 12 12 11 10 10 10 10 11 11 11 12 13 13 14 14 14 14 15 15 16 17 17 17 18 18 18 19 19 19 19 19 18 18 18 18 19 20 21 22 23
Wind_Direction
239 237 236 237 238 239 240 243 245 249 251 252 254 256 258 259 263 264 265 266 268 270 271 272 275 277 275 272 271 274 274 273 274 274 274 274 273 274 275 276 276 276 276 275
239 237 236 237 239 241 242 244 245 249 251 253 255 256 257 260 265 265 265 267 269 271 272 274 277 278 277 274 272 273 273 273 273 273 273 273 272 272 273 274 275 275 276 277
241 239 241 241 241 243 245 248 249 250 251 252 256 256 260 263 263 265 268 267 268 269 271 273 275 277 275 274 274 273 273 273 272 273 271 271 272 273 273 274 275 275 274 276
243 241 242 242 243 244 246 248 251 252 252 254 255 257 259 261 261 264 266 266 266 267 270 273 275 275 272 272 275 274 273 273 272 272 273 271 272 273 274 273 273 273 274 273
247 245 245 243 247 248 249 251 251 253 255 256 255 255 255 256 259 262 261 264 266 267 269 271 273 273 272 273 274 273 273 273 273 272 273 273 273 272 273 273 273 272 271 272
248 247 247 246 249 250 251 254 253 253 255 257 255 256 256 257 259 262 264 263 265 266 267 269 270 271 272 272 272 272 273 273 274 274 275 275 273 271 272 273 273 272 271 270
254 252 253 252 251 252 255 257 257 256 257 259 259 259 258 258 260 261 262 264 264 265 267 268 269 270 271 272 272 273 273 275 276 276 276 276 273 271 271 272 272 272 271 270
260 259 259 257 253 254 258 260 259 259 259 260 261 260 258 257 257 258 260 263 265 265 266 267 269 270 271 271 271 272 273 274 275 276 276 275 273 271 270 270 271 270 270 271
262 261 260 260 258 257 259 262 262 260 261 262 263 262 260 258 257 257 261 265 266 266 266 266 268 270 271 272 271 271 272 273 274 275 274 273 273 273 272 271 272 271 270 271
265 265 263 262 262 262 261 263 264 264 264 262 260 260 259 259 257 258 261 265 266 268 268 267 267 268 269 269 269 270 271 274 274 274 273 272 273 274 274 272 271 271 271 271
266 265 265 266 264 264 263 266 268 268 266 263 262 261 260 259 258 259 260 262 263 265 267 267 266 267 269 268 268 269 272 274 274 274 274 272 272 272 272 273 272 272 272 272
270 268 269 269 267 266 265 265 266 265 264 263 262 261 260 260 260 258 259 262 262 262 264 267 267 268 267 266 268 270 272 273 273 274 273 272 271 271 272 272 272 272 272 273
273 273 272 271 269 270 269 266 265 263 263 264 264 264 262 261 261 260 260 262 263 263 264 266 266 265 264 264 267 269 270 272 273 273 272 271 269 269 270 271 271 270 272 273
279 279 276 274 272 271 271 268 266 265 265 264 264 265 264 263 262 261 260 261 262 263 264 264 264 263 262 263 266 267 269 271 272 272 271 271 270 270 269 269 270 271 272 273
280 282 279 274 273 277 278 276 271 269 269 269 268 268 267 266 264 262 261 262 262 262 262 262 262 263 264 263 264 266 267 269 269 271 271 272 271 271 270 270 270 270 270 271
283 282 280 279 277 279 279 279 276 273 272 272 272 271 271 270 266 262 262 262 261 260 259 260 263 264 265 267 266 265 267 267 269 271 273 274 275 275 273 272 271 270 268 269
287 283 280 282 282 282 281 280 278 275 274 275 274 272 270 269 266 263 261 262 262 260 259 260 262 263 264 266 266 267 267 267 269 271 273 275 276 277 275 273 271 269 268 268
290 286 283 283 284 287 286 283 280 277 276 275 274 271 268 267 266 262 259 260 261 261 261 262 263 264 264 265 266 267 268 269 270 271 273 275 276 276 276 273 270 270 269 269
295 294 290 285 285 285 284 283 282 282 279 276 273 271 269 267 267 265 262 261 263 265 265 264 263 264 265 265 266 267 267 269 271 273 274 275 276 276 276 274 270 269 269 270
297 299 298 294 292 289 286 285 284 282 279 276 273 271 269 268 268 267 265 264 265 267 267 266 266 267 266 267 268 269 270 270 272 274 275 275 275 274 273 272 270 268 267 267
302 305 304 300 298 295 291 286 282 280 279 276 273 270 269 268 267 266 267 266 267 267 267 266 268 268 268 269 271 272 273 273 274 275 275 276 276 274 273 272 270 268 267 267
302 303 303 303 300 299 296 291 286 283 282 280 278 277 273 268 267 268 269 270 271 271 269 267 267 268 269 271 272 274 274 274 275 276 277 277 277 275 273 271 270 268 268 269
302 302 303 303 301 300 297 293 290 286 282 280 277 276 275 271 270 271 272 272 272 270 269 269 268 268 271 274 273 273 273 274 277 278 279 279 277 275 272 271 270 269 269 270
301 302 305 306 304 301 297 294 291 286 281 277 276 276 276 276 274 273 274 274 274 271 271 270 268 269 272 272 272 272 273 274 277 279 279 279 277 273 271 271 271 270 270 271
304 302 304 307 305 304 301 297 293 290 284 280 277 276 275 275 275 275 275 276 276 273 271 272 272 273 274 274 274 274 275 276 277 277 276 277 278 277 274 273 274 274 274 274
307 307 308 308 306 304 302 297 293 292 289 284 283 281 280 278 277 276 276 277 276 275 273 275 277 276 276 275 275 276 277 278 279 279 279 279 280 279 277 276 278 278 277 277
307 308 312 313 310 305 303 299 295 291 291 292 290 287 285 283 280 280 279 278 278 279 279 278 279 279 277 278 278 279 280 280 280 279 279 278 278 279 280 280 279 278 279 280
Height
5762 5764 5766 5768 5771 5773 5775 5777 5779 5781 5783 5785 5786 5787 5788 5789 5790 5791 5791 5791 5792 5793 5793 5793 5793 5794 5793 5793 5793 5792 5792 5792 5792 5791 5791 5790 5790 5789 5789 5788 5788 5787 5787 5786
5755 5757 5759 5761 5764 5766 5768 5770 5772 5774 5776 5778 5779 5780 5781 5781 5782 5783 5783 5784 5785 5785 5786 5786 5786 5785 5785 5785 5785 5784 5784 5784 5783 5783 5782 5782 5782 5781 5781 5780 5780 5779 5778 5778
5749 5751 5752 5755 5758 5759 5761 5762 5764 5766 5769 5770 5772 5772 5773 5774 5775 5775 5776 5776 5776 5777 5777 5778 5778 5777 5778 5777 5777 5776 5775 5775 5775 5774 5774 5774 5774 5773 5772 5772 5771 5771 5770 5769
5742 5745 5747 5751 5751 5752 5753 5755 5756 5758 5760 5762 5764 5765 5766 5767 5768 5768 5768 5769 5769 5769 5769 5769 5769 5769 5769 5769 5769 5768 5767 5767 5766 5766 5765 5765 5765 5765 5764 5763 5763 5762 5761 5761
5735 5737 5739 5743 5743 5745 5746 5747 5749 5750 5752 5753 5754 5756 5758 5759 5759 5760 5760 5761 5761 5761 5761 5761 5762 5761 5761 5761 5761 5760 5759 5758 5758 5757 5757 5757 5756 5756 5755 5755 5754 5753 5753 5752
5728 5730 5732 5736 5736 5737 5739 5739 5741 5742 5743 5745 5746 5748 5750 5750 5750 5751 5752 5752 5753 5753 5753 5753 5753 5753 5753 5753 5752 5752 5751 5750 5750 5749 5748 5748 5747 5747 5746 5746 5745 5745 5744 5744
5722 5723 5724 5728 5728 5730 5732 5733 5733 5733 5734 5736 5737 5739 5740 5741 5742 5743 5743 5744 5744 5744 5744 5744 5745 5745 5745 5744 5744 5744 5743 5742 5742 5741 5740 5739 5739 5738 5738 5737 5737 5736 5736 5736
5715 5716 5720 5720 5720 5722 5723 5723 5724 5725 5726 5727 5728 5730 5730 5731 5732 5734 5735 5735 5735 5735 5736 5736 5736 5736 5736 5736 5736 5735 5735 5734 5733 5732 5731 5731 5730 5730 5729 5729 5728 5728 5728 5727
5709 5711 5711 5711 5712 5713 5714 5715 5716 5716 5717 5718 5719 5720 5721 5723 5723 5724 5726 5727 5727 5727 5727 5728 5728 5728 5728 5727 5727 5727 5726 5726 5725 5724 5723 5723 5722 5722 5721 5721 5720 5719 5719 5719
5702 5702 5703 5703 5704 5704 5705 5706 5707 5707 5707 5707 5709 5710 5712 5713 5714 5715 5716 5717 5718 5718 5718 5719 5719 5719 5719 5719 5719 5718 5718 5717 5717 5716 5715 5714 5714 5713 5713 5713 5712 5712 5711 5710
5695 5695 5695 5695 5696 5696 5697 5697 5698 5698 5698 5698 5699 5700 5701 5703 5705 5706 5707 5708 5709 5709 5710 5710 5710 5710 5710 5710 5710 5710 5710 5709 5709 5708 5707 5706 5706 5706 5705 5705 5705 5704 5703 5702
5689 5688 5687 5687 5688 5688 5688 5689 5689 5689 5689 5689 5690 5691 5692 5694 5696 5697 5698 5699 5700 5700 5701 5701 5701 5702 5702 5702 5702 5702 5701 5701 5700 5700 5699 5698 5698 5698 5697 5698 5697 5696 5696 5695
5682 5681 5680 5679 5679 5680 5681 5681 5681 5681 5682 5682 5683 5683 5684 5685 5686 5687 5688 5689 5690 5691 5691 5692 5692 5692 5693 5693 5693 5693 5693 5693 5692 5692 5691 5690 5690 5690 5690 5690 5689 5689 5688 5688
5676 5674 5673 5672 5672 5673 5673 5673 5674 5674 5674 5675 5675 5675 5676 5677 5678 5678 5679 5680 5681 5682 5682 5682 5683 5683 5684 5684 5684 5685 5685 5685 5684 5684 5683 5683 5682 5682 5682 5682 5682 5681 5681 5680
5670 5669 5668 5667 5666 5666 5666 5666 5666 5666 5666 5667 5667 5667 5667 5668 5669 5670 5670 5671 5671 5672 5673 5674 5674 5674 5675 5675 5676 5676 5676 5677 5676 5676 5675 5675 5674 5674 5674 5673 5673 5673 5672 5672
5665 5664 5663 5662 5661 5661 5660 5660 5660 5660 5659 5659 5659 5659 5659 5659 5659 5660 5660 5661 5662 5663 5664 5665 5666 5666 5667 5667 5667 5668 5668 5668 5668 5668 5668 5667 5667 5666 5666 5665 5665 5665 5664 5664
5660 5659 5658 5657 5655 5654 5653 5653 5653 5653 5652 5652 5651 5651 5651 5650 5650 5651 5652 5652 5653 5654 5655 5656 5658 5658 5658 5659 5659 5659 5660 5660 5660 5660 5660 5659 5659 5658 5657 5657 5656 5656 5656 5656
5655 5653 5652 5651 5650 5649 5647 5646 5645 5645 5645 5644 5644 5643 5643 5643 5643 5643 5644 5644 5645 5646 5647 5648 5649 5650 5650 5651 5651 5652 5652 5652 5652 5651 5651 5651 5650 5649 5648 5648 5648 5648 5648 5647
5650 5648 5647 5645 5644 5643 5641 5640 5639 5638 5638 5637 5637 5637 5637 5636 5636 5637 5637 5638 5638 5639 5640 5641 5641 5642 5643 5643 5643 5643 5643 5643 5643 5643 5643 5642 5641 5641 5640 5639 5639 5639 5639 5639
5645 5643 5641 5639 5637 5636 5635 5634 5633 5632 5632 5631 5631 5630 5630 5630 5630 5631 5631 5631 5632 5633 5633 5633 5634 5634 5635 5635 5635 5635 5635 5635 5635 5634 5634 5634 5633 5632 5631 5631 5631 5631 5631 5631
5640 5638 5636 5634 5632 5630 5629 5628 5628 5627 5626 5625 5625 5624 5624 5624 5624 5624 5625 5626 5626 5626 5626 5626 5626 5627 5627 5627 5628 5628 5627 5627 5627 5626 5626 5625 5625 5624 5623 5623 5623 5623 5623 5624
5635 5633 5631 5629 5627 5625 5623 5622 5622 5621 5620 5620 5619 5619 5618 5618 5618 5618 5619 5619 5619 5619 5619 5619 5620 5620 5620 5620 5620 5620 5620 5620 5619 5619 5618 5617 5617 5616 5615 5615 5614 5615 5615 5615
5631 5629 5627 5625 5623 5621 5619 5617 5616 5615 5615 5614 5614 5614 5613 5613 5613 5613 5613 5613 5613 5613 5613 5613 5614 5614 5614 5614 5614 5613 5613 5613 5612 5611 5610 5610 5609 5608 5607 5607 5607 5607 5607 5607
5626 5624 5622 5620 5618 5617 5615 5613 5612 5611 5610 5610 5609 5609 5609 5608 5608 5608 5608 5608 5608 5608 5608 5608 5608 5608 5608 5607 5607 5607 5606 5606 5605 5604 5603 5603 5602 5601 5600 5600 5599 5599 5599 5599
5621 5619 5618 5616 5614 5612 5611 5609 5608 5607 5606 5606 5605 5605 5604 5604 5604 5604 5603 5603 5603 5603 5603 5603 5602 5602 5602 5601 5601 5600 5599 5598 5598 5597 5596 5596 5595 5594 5593 5593 5592 5592 5591 5590
5616 5615 5613 5611 5610 5608 5606 5605 5604 5603 5603 5602 5601 5601 5600 5600 5599 5599 5599 5598 5598 5598 5597 5597 5597 5596 5595 5595 5594 5594 5593 5592 5591 5590 5589 5589 5588 5587 5586 5586 5585 5584 5583 5582
5612 5610 5609 5607 5606 5604 5602 5601 5600 5600 5599 5598 5598 5597 5596 5595 5595 5594 5594 5594 5593 5593 5592 5592 5591 5590 5589 5588 5588 5587 5586 5585 5584 5583 5582 5581 5581 5580 5579 5578 5577 5576 5575 5575